Weather History for Orangeburg, SC

Change the Weather History Date:

Monday, December 31, 2012

  Actual Average Record
Temperature  
Mean Temperature 43 °F 45 °F  
Max Temperature 59 °F 56 °F 80 °F (1984)
Min Temperature 27 °F 35 °F 16 °F (1983)
Degree Days  
Heating Degree Days 22 20  
Month to date heating degree days 364 536  
Since 1 July heating degree days 814 904  
Cooling Degree Days 0 0  
Month to date cooling degree days 2 4  
Year to date cooling degree days 2322 2106  
Moisture  
Dew Point 33 °F    
Average Humidity 66    
Maximum Humidity 92    
Minimum Humidity 38    
Precipitation  
Precipitation 0.00 in 0.11 in 1.32 in (1988)
Month to date precipitation 4.38 3.32  
Year to date precipitation 42.68 46.73  
Sea Level Pressure  
Sea Level Pressure 30.33 in    
Wind  
Wind Speed 2 mph (SW)    
Max Wind Speed 14 mph    
Max Gust Speed 16 mph    
Visibility 10 miles    
Events      
T = Trace of Precipitation, MM = Missing Value Source: NWS Daily Summary

Daily Weather History Graph

Daily Weather History Graph

Search for Another Location

Airport:

Trip Planner

Search our weather history database for the weather conditions in past years. The results will help you decide how hot, cold, wet, or windy it might be!

Date:

Astronomy

Dec. 31, 2012 Rise Set
Actual Time 7:27 AM EST 5:26 PM EST
Civil Twilight 6:59 AM EST 5:53 PM EST
Nautical Twilight 6:28 AM EST 6:24 PM EST
Astronomical Twilight 5:58 AM EST 6:54 PM EST
Moon 8:44 PM EST (12/31) 9:17 AM EST (12/31)
Length of Visible Light 10h 53m
Length of Day
9h 58m
Waning Gibbous, 90% of the Moon is Illuminated
Dec 31
Waning Gibbous
Jan 4
Last Quarter
Jan 11
New
Jan 18
First Quarter
Jan 26
Full

Hourly Weather History & Observations

Time (EST) Temp. Dew Point Humidity Pressure Visibility Wind Dir Wind Speed Gust Speed Precip Events Conditions
12:53 AM 28.9 °F 26.1 °F 89% 30.39 in 7.0 mi Calm Calm - N/A   Clear
1:53 AM 28.0 °F 25.0 °F 88% 30.38 in 8.0 mi Calm Calm - N/A   Clear
2:53 AM 28.0 °F 25.0 °F 88% 30.39 in 7.0 mi Calm Calm - N/A   Clear
3:53 AM 28.9 °F 26.1 °F 89% 30.40 in 9.0 mi Calm Calm - N/A   Clear
4:53 AM 28.0 °F 25.0 °F 88% 30.39 in 9.0 mi Calm Calm - N/A   Clear
5:53 AM 30.9 °F 27.0 °F 85% 30.41 in 10.0 mi Calm Calm - N/A   Clear
6:53 AM 30.9 °F 28.0 °F 89% 30.42 in 9.0 mi Calm Calm - N/A   Clear
7:53 AM 30.9 °F 28.0 °F 89% 30.43 in 8.0 mi Calm Calm - N/A   Clear
8:53 AM 34.0 °F 28.0 °F 79% 30.44 in 10.0 mi Calm Calm - N/A   Clear
9:53 AM 43.0 °F 30.9 °F 62% 30.42 in 10.0 mi Calm Calm - N/A   Clear
10:53 AM 48.9 °F 27.0 °F 43% 30.40 in 10.0 mi SSW 3.5 mph - N/A   Clear
11:53 AM 51.1 °F 27.0 °F 39% 30.38 in 10.0 mi SSW 6.9 mph - N/A   Overcast
12:49 PM 53.6 °F 30.2 °F 41% 30.31 in 10.0 mi SW 5.8 mph - N/A   Overcast
12:53 PM 54.0 °F 32.0 °F 43% 30.31 in 10.0 mi SSW 5.8 mph - N/A   Overcast
1:25 PM 55.4 °F 35.6 °F 47% 30.28 in 10.0 mi SSW 9.2 mph - N/A   Mostly Cloudy
1:53 PM 57.0 °F 36.0 °F 45% 30.28 in 10.0 mi SW 9.2 mph - N/A   Mostly Cloudy
2:53 PM 57.9 °F 37.9 °F 47% 30.27 in 10.0 mi SW 6.9 mph - N/A   Scattered Clouds
3:53 PM 59.0 °F 39.9 °F 49% 30.24 in 10.0 mi SW 6.9 mph - N/A   Clear
4:53 PM 57.9 °F 41.0 °F 53% 30.24 in 10.0 mi South 3.5 mph - N/A   Partly Cloudy
5:53 PM 55.0 °F 41.0 °F 59% 30.25 in 10.0 mi Calm Calm - N/A   Clear
6:53 PM 51.1 °F 42.1 °F 71% 30.25 in 10.0 mi Calm Calm - N/A   Overcast
7:53 PM 52.0 °F 42.1 °F 69% 30.24 in 10.0 mi Calm Calm - N/A   Overcast
8:53 PM 53.1 °F 42.1 °F 66% 30.22 in 10.0 mi Calm Calm - N/A   Overcast
9:53 PM 52.0 °F 43.0 °F 71% 30.22 in 10.0 mi SSW 3.5 mph - N/A   Overcast
10:53 PM 52.0 °F 43.0 °F 71% 30.20 in 10.0 mi Calm Calm - N/A   Overcast